Hourly Weather Roundup
Issued by NWS Central Illinois

Home | Current Version | Previous Version | Text Only | Print | Product List | Glossary On
Versions: 1 2 3 4 5 6 7 8 9 10 11 12 13 14 15 16 17 18 19 20 21 22 23 24 25 26 27 28 29 30 31 32 33 34 35 36 37 38 39 40 41 42 43 44 45 46 47 48 49 50
000
NZUS43 KILX 021110
HWRILX

AREA WEATHER ROUNDUP
NATIONAL WEATHER SERVICE, LINCOLN IL
500 AM CST MON MAR 02 2015


CITY           SKY/WX    TMP DP  RH WIND       PRES   REMARKS
BLOOMINGTON    MOCLDY    16  11  80 W7        30.48R WCI   6
CHAMPAIGN      CLOUDY    11   8  88 W6        30.48R WCI   1
DECATUR        CLOUDY    20  16  84 W5        30.50R WCI  13
FLORA          MOCLDY    17  16  95 NW5       30.52S FOG     WCI  10
GALESBURG      PTCLDY    11  10  93 W6        30.50R WCI   2
JACKSONVILLE   MOCLDY    19  16  90 CALM      30.52R FOG
LACON          PTCLDY    10   5  82 CALM      30.50R
LAWRENCEVILLE  MOCLDY    15  11  83 NW3       30.52R FOG
LITCHFIELD     PTCLDY    12  10  88 N6        30.50S FOG     WCI   3
$$


CITY           SKY/WX    TMP DP  RH WIND       PRES   REMARKS
LINCOLN        CLOUDY    21  17  83 CALM      30.53R
MACOMB         MOCLDY     9   8  94 W9        30.52R FOG     WCI  -4
MATTOON        CLOUDY    18  12  77 NW7       30.49R WCI   9
MT CARMEL AP   PTCLDY    19  14  79 CALM      30.52R
OLNEY-NOBLE AP FOG       14  12  92 CALM      30.53R VSB 3/4
PARIS          MOCLDY    16  13  89 CALM      30.50R
PEORIA         MOCLDY    22  12  65 NW6       30.50R WCI  14
PONTIAC        PTCLDY     9   7  92 CALM      30.49R
RANTOUL        CLOUDY    17  13  86 W7        30.48R WCI   7
ROBINSON       MOCLDY     6   5  93 CALM      30.52S
SPRINGFIELD    CLOUDY    16  13  88 W3        30.51R
TAYLORVILLE    MOCLDY    16  12  86 CALM      30.52R
$$

...REGIONAL REPORTS...


CITY           SKY/WX    TMP DP  RH WIND       PRES   REMARKS
CHICAGO O`HARE CLEAR     15   8  73 W9        30.44R WCI   3
KANKAKEE       PTCLDY     3   0  86 W8        30.47S WCI -10
MOLINE         PTCLDY     5   2  87 W5        30.50R WCI  -4
MOUNT VERNON   PTCLDY     9   1  72 CALM      30.52S
PITTSFIELD     CLOUDY    16  14  91 W5        30.52R WCI   9
QUINCY         MOCLDY    17  15  92 SW3       30.51R FOG
ROCKFORD       PTCLDY    10   5  80 SW3       30.47R
$$


CITY           SKY/WX    TMP DP  RH WIND       PRES   REMARKS
BURLINGTON     PTCLDY    19  13  77 NW7       30.50R WCI  10
CEDAR RAPIDS   PTCLDY     7   4  87 W12       30.48R WCI  -8
DES MOINES     CLEAR     20  12  71 CALM      30.51R
KIRKSVILLE     MOCLDY    19  17  92 W5        30.50R WCI  12
OTTUMWA        CLEAR     15  10  80 N8        30.50R WCI   4
ST LOUIS       PTCLDY    18  14  84 SW3       30.53R FOG
$$


CITY           SKY/WX    TMP DP  RH WIND       PRES   REMARKS
TERRE HAUTE    MOCLDY    19  13  77 N3        30.49R
EVANSVILLE     CLEAR     25  19  78 N7        30.53R WCI  17
INDIANAPOLIS   CLOUDY    19  11  70 NW12      30.46R WCI   7
LAFAYETTE      CLOUDY    13   9  84 CALM      30.47R
MADISON        CLEAR      9   4  80 CALM      30.42R
MILWAUKEE      CLEAR     16   7  67 W8        30.42R WCI   5
$$





USA.gov is the U.S. government's official web portal to all federal, state and local government web resources and services.